Regional Weather Roundup
Issued by NWS

Home | Current Version | Previous Version | Text Only | Print | Product List | Glossary On
Versions: 1 2 3 4 5 6 7 8 9 10 11 12 13 14 15 16 17 18 19 20 21 22 23 24 25 26 27 28 29 30 31 32 33 34 35 36 37 38 39 40 41 42 43 44 45 46 47 48 49 50
000
ASUS43 KLOT 231608
RWRIL

ILLINOIS REGIONAL WEATHER ROUNDUP
NATIONAL WEATHER SERVICE CHICAGO/ROMEOVILLE IL
1100 AM CDT SAT MAY 23 2015

NOTE: "FAIR" INDICATES FEW OR NO CLOUDS BELOW 12,000 FEET WITH NO
SIGNIFICANT WEATHER AND/OR OBSTRUCTIONS TO VISIBILITY.

* THESE STATIONS ARE NOT UNDER NWS QUALITY CONTROL. THEY ALSO MAY NOT
  REPORT WEATHER SUCH AS PRECIPITATION OR FOG.

ILZ001-002-007-009-015-016-024-231700-
NORTHWEST ILLINOIS

CITY           SKY/WX    TMP DP  RH WIND       PRES   REMARKS
MOLINE         SUNNY     75  47  36 S6        30.28F
STERLING*      SUNNY     77  46  33 W5        30.29F
SAVANNA*       SUNNY     71  46  41 SW6       30.29S
$$

ILZ003-004-008-010-011-017-018-231700-
NORTH CENTRAL ILLINOIS

CITY           SKY/WX    TMP DP  RH WIND       PRES   REMARKS
ROCKFORD       MOSUNNY   73  44  35 S12       30.31F
FREEPORT*      SUNNY     70  45  40 SW7       30.31F
ROCHELLE*      SUNNY     74  42  32 S10G16    30.30F
DE KALB*       SUNNY     70  45  41 S12       30.32F
PERU*          SUNNY     74  43  33 S6        30.31F
$$

ILZ005-006-012>014-019>023-231700-
NORTHEAST ILLINOIS

CITY           SKY/WX    TMP DP  RH WIND       PRES   REMARKS
CHICAGO-OHARE  MOSUNNY   72  41  32 SE9       30.31F
CHICAGO-MIDWAY FAIR      73  41  31 SE12      30.32F
AURORA         SUNNY     72  43  35 S12       30.32F
LANSING*       SUNNY     71  40  32 SE9       30.33F
JOLIET*        SUNNY     73  50  43 S5        30.32F
WAUKEGAN       SUNNY     67  40  37 SE10      30.32F
DUPAGE AIRPORT SUNNY     71  44  37 S13       30.31F
KANKAKEE*      SUNNY     73  50  43 S6        30.33F
WHEELING       SUNNY     72  38  29 S10       30.33F
MORRIS*        SUNNY     73  43  33 SE8       30.31S
ROMEOVILLE*    SUNNY     71  43  36 S10       30.32F
NORTHERLY ISL    N/A     61  46  57 E1          N/A
$$

LMZ740>746-231700-
SOUTHERN LAKE MICHIGAN

STATION/POSITION SKY/WX   TEMP    WIND        PRES    VSBY  WAVE
                          AIR SEA DIR/SP/G                  HT/PER
                          (F)     (DEG/KT/KT) (MB)    (MI)  (FT/S)
SOUTHERN BUOY              43 38  120/  6/  6 1028.5F         0
HARRISON CRIB              59     130/  8/  9   N/A
BURNHAM HARBOR             61      CALM  /  3   N/A
CALUMET HARBOR             68     150/  5/  7   N/A
BURNS HARBOR               70     170/ 11/ 14 1028.1F
MICHIGAN CITY              67     140/  9/ 11   N/A
MICHIGAN CITY 6N           63 53  160/  4/  6   N/A           1
ST. JOSEPH                 60 54  320/  2/  2   N/A           1
$$

ILZ025>027-034>036-040-047-049-050-058-095>099-231700-
WEST-CENTRAL ILLINOIS

CITY           SKY/WX    TMP DP  RH WIND       PRES   REMARKS
QUINCY         MOSUNNY   71  50  47 S12       30.29F
GALESBURG*     SUNNY     73  51  45 S8        30.30S
MACOMB*        SUNNY     74  51  44 S10       30.31F
JACKSONVILLE*  MOSUNNY   75  51  41 S9        30.30F
PITTSFIELD*    PTSUNNY   72  50  46 SE8       30.31S
$$

ILZ028>032-037-038-041>044-048-051>054-059>061-231700-
CENTRAL ILLINOIS

CITY           SKY/WX    TMP DP  RH WIND       PRES   REMARKS
PONTIAC        SUNNY     77  40  26 CALM      30.31F
BLOOMINGTON    SUNNY     75  49  39 SW8       30.33F
DECATUR        MOSUNNY   75  50  41 S10       30.33S
PEORIA         SUNNY     75  53  46 SW9       30.31F
LACON*         SUNNY     74  46  37 SW7       30.29F
LINCOLN*       MOSUNNY   76  49  39 SW5       30.30S
SPRINGFIELD    SUNNY     76  53  44 S8        30.31F
TAYLORVILLE    MOSUNNY   72  52  49 S8        30.32F
$$

ILZ033-039-045-046-055>057-062-063-231700-
EAST-CENTRAL ILLINOIS

CITY           SKY/WX    TMP DP  RH WIND       PRES   REMARKS
CHAMPAIGN      MOSUNNY   76  46  34 SW8       30.33F
DANVILLE*      SUNNY     74  50  41 S6        30.32F
RANTOUL*       SUNNY     78  46  33 S9G17     30.33S
MATTOON        PTSUNNY   72  52  49 S8        30.34S
PARIS*         MOSUNNY   76  48  37 S7        30.35F
$$

ILZ079-100>102-231700-
SOUTHWEST ILLINOIS

CITY           SKY/WX    TMP DP  RH WIND       PRES   REMARKS
BELLEVILLE     MOSUNNY   75  55  49 SE14      30.30F
CAHOKIA*       MOSUNNY   74  49  41 S14       30.31F
SPARTA*        MOSUNNY   71  52  49 S10G16    30.33F
$$

ILZ064>066-069>071-074>076-080>082-084>086-088>090-092>094-231700-
SOUTH-CENTRAL ILLINOIS

CITY           SKY/WX    TMP DP  RH WIND       PRES   REMARKS
CARBONDALE     MOSUNNY   73  49  42 S9        30.33F
CAIRO*         MOSUNNY   74  50  43 E8        30.32F
EFFINGHAM*     PTSUNNY   73  49  41 SE3       30.36S
MT. VERNON     PTSUNNY   73  52  46 SE8       30.34F
CENTRALIA*     MOSUNNY   77  48  35 S12       30.33F
SALEM*         MOSUNNY   76  47  36 S10       30.34F
METROPOLIS*    MOSUNNY   74  49  41 E7        30.32F
$$

ILZ067-068-072-073-078-083-087-091-231700-
SOUTHEAST ILLINOIS

CITY           SKY/WX    TMP DP  RH WIND       PRES   REMARKS
LAWRENCEVILLE  PTSUNNY   73  52  47 E3        30.36S
FLORA*         MOSUNNY   73  51  47 S8        30.36R
FAIRFIELD*     PTSUNNY   73  53  49 SE12      30.34S
HARRISBURG*    SUNNY     74  52  45 SE10      30.36R
ROBINSON*      PTSUNNY   74  52  46 CALM      30.37S
CARMI*         PTSUNNY   75  46  34 SE10      30.35R
$$

ABBREVIATIONS USED IN REMARKS
   TC - TEMPERATURE IN CELSIUS
  WCI - WIND CHILL INDEX
   HX - HEAT INDEX
  VSB - VISIBILITY
$$




USA.gov is the U.S. government's official web portal to all federal, state and local government web resources and services.